Погода в Сололе

Гватемала     14°46′24″N   91°10′57″W
темп.,
°C
ветер,
м/с
пор.,
м/с
влажн.,
%
обл.,
%
осадки,
мм/ч
давл.,
гПа
погр.,
м
11 апреля, вс
вс1100:00+12ссз11738 0.4 101514
03:00+12ссз118731 0.2 101428
06:00+12ссз11817 0.2 101514
09:00+19ююз22590 0.0 1014811
12:00+22ююз435118 0.1 10121679
15:00+19ююз336366 0.9 10111107
18:00+15ююз229171 1.9 1013296
21:00+14с228417 0.6 101420
12 апреля, пн
пн1200:00+14ссв22776 0.7 101523
03:00+13ссв22822 0.1 101321
06:00+13ссв21830 0.1 101521
09:00+20ююв225413 0.0 10141230
12:00+22ю435562 0.5 10131630
15:00+19ююз327771 2.9 1012694
18:00+16ю119179 3.8 1013242
21:00+15с228313 1.1 101527
13 апреля, вт
вт1300:00+14ссв22813 1.3 101520
03:00+13ссв22813 0.0 101423
06:00+13с22831 0.0 101621
09:00+20ююв225310 0.0 10161260
12:00+19ю327080 1.6 1015851
15:00+17юз228369 5.7 1014282
18:00+15юз119359 8.3 1015122
21:00+15св228669 1.7 101739
14 апреля, ср
ср1400:00+14ссв228946 3.4 101723
03:00+15ссз118261 0.3 101511
06:00+13с11883 0.3 101715
09:00+20ююв116223 0.3 1017915
12:00+19ююз227153 3.7 1015754
15:00+17ююз228599 8.2 1014303
18:00+15ююв0196100 14.8 101558
21:00+14ссв229370 3.1 101757
15 апреля, чт
чт1500:00+15св118598 3.7 101611
03:00+14с118481 0.8 101515
06:00+14ссз118873 2.1 101620
09:00+19ююз226847 0.5 1016766
12:00+19ююз327559 4.5 1015742
15:00+18ююз338247 9.1 1013582
18:00+15юз119395 13.9 101475
21:00+15св229348 7.3 101670